| time (UTC) | temp F | wind direction | speed knots | gust knots | rain 1hr in | rain 24hr in | rain mn in | humidity % | barometer mb |
| 20260507053026 | 43 | 192 | 0.0 | 1.7 | 0.00 | 0.02 | 0.00 | 92 | 1018.4 |
| 20260507051520 | 43 | 179 | 0.0 | 1.7 | 0.00 | 0.02 | 0.00 | 92 | 1018.3 |
| 20260507050026 | 43 | 187 | 0.0 | 1.7 | 0.00 | 0.02 | 0.00 | 91 | 1018.3 |
| 20260507044505 | 44 | 179 | 0.0 | 1.7 | 0.00 | 0.02 | 0.02 | 91 | 1018.2 |
| 20260507043010 | 44 | 180 | 0.0 | 1.7 | 0.00 | 0.02 | 0.02 | 91 | 1018.1 |
| 20260507041504 | 44 | 166 | 0.0 | 0.9 | 0.00 | 0.02 | 0.02 | 91 | 1017.8 |
| 20260507040006 | 45 | 166 | 0.0 | 0.9 | 0.00 | 0.02 | 0.02 | 91 | 1017.9 |
| 20260507034503 | 46 | 165 | 0.0 | 0.9 | 0.00 | 0.02 | 0.02 | 91 | 1018.0 |
| 20260507033008 | 46 | 165 | 0.0 | 0.9 | 0.00 | 0.02 | 0.02 | 90 | 1017.8 |
| 20260507031504 | 46 | 150 | 0.0 | 0.9 | 0.00 | 0.02 | 0.02 | 90 | 1017.8 |
| 20260507030009 | 46 | 126 | 0.0 | 0.9 | 0.00 | 0.02 | 0.02 | 90 | 1017.6 |
| 20260507024513 | 47 | 126 | 0.0 | 0.9 | 0.00 | 0.02 | 0.02 | 89 | 1017.5 |
| 20260507023008 | 48 | 126 | 0.0 | 0.9 | 0.00 | 0.02 | 0.02 | 89 | 1017.2 |
| 20260507021503 | 48 | 126 | 0.0 | 0.9 | 0.00 | 0.02 | 0.02 | 88 | 1017.2 |
| 20260507020005 | 49 | 127 | 0.0 | 0.9 | 0.00 | 0.02 | 0.02 | 85 | 1017.1 |
| 20260507014510 | 50 | 119 | 0.0 | 0.9 | 0.00 | 0.06 | 0.02 | 84 | 1016.9 |
| 20260507013020 | 51 | 109 | 0.0 | 0.9 | 0.00 | 0.06 | 0.02 | 82 | 1016.5 |
| 20260507011516 | 52 | 109 | 0.0 | 1.7 | 0.00 | 0.06 | 0.02 | 79 | 1016.6 |
| 20260507010011 | 54 | 98 | 0.0 | 0.9 | 0.00 | 0.06 | 0.02 | 77 | 1016.4 |
| 20260507004510 | 55 | 98 | 0.0 | 0.9 | 0.00 | 0.06 | 0.02 | 76 | 1016.2 |
| 20260507003013 | 56 | 98 | 0.0 | 2.6 | 0.00 | 0.06 | 0.02 | 72 | 1016.1 |
| 20260507001544 | 58 | 41 | 0.0 | 1.7 | 0.00 | 0.06 | 0.02 | 64 | 1016.0 |
| 20260507000023 | 59 | 303 | 0.0 | 3.5 | 0.00 | 0.06 | 0.02 | 60 | 1016.0 |
| 20260506234516 | 59 | 136 | 0.9 | 1.7 | 0.00 | 0.06 | 0.02 | 58 | 1016.0 |
| 20260506233009 | 59 | 352 | 0.0 | 2.6 | 0.00 | 0.06 | 0.02 | 62 | 1015.9 |
| 20260506231509 | 59 | 110 | 0.9 | 2.6 | 0.00 | 0.06 | 0.02 | 60 | 1015.7 |
| 20260506230035 | 59 | 60 | 0.9 | 5.2 | 0.00 | 0.06 | 0.02 | 61 | 1015.2 |
| 20260506224523 | 59 | 345 | 0.0 | 7.0 | 0.00 | 0.06 | 0.02 | 59 | 1014.7 |
| 20260506223010 | 59 | 315 | 0.9 | 7.0 | 0.00 | 0.06 | 0.02 | 62 | 1014.6 |
| 20260506221513 | 58 | 304 | 0.0 | 4.3 | 0.00 | 0.06 | 0.02 | 62 | 1014.8 |
| 20260506220009 | 58 | 360 | 0.9 | 2.6 | 0.00 | 0.06 | 0.02 | 67 | 1015.3 |
| 20260506214512 | 58 | 65 | 0.9 | 3.5 | 0.00 | 0.06 | 0.02 | 63 | 1015.3 |
| 20260506213011 | 58 | 88 | 0.9 | 3.5 | 0.00 | 0.06 | 0.02 | 63 | 1015.4 |
| 20260506211512 | 58 | 360 | 0.9 | 2.6 | 0.00 | 0.06 | 0.02 | 66 | 1015.4 |
| 20260506210029 | 58 | 92 | 0.9 | 3.5 | 0.00 | 0.06 | 0.02 | 63 | 1015.6 |
| 20260506204513 | 57 | 238 | 0.9 | 3.5 | 0.00 | 0.06 | 0.02 | 64 | 1016.2 |
| 20260506203014 | 57 | 26 | 0.9 | 2.6 | 0.00 | 0.06 | 0.02 | 66 | 1016.4 |
| 20260506201520 | 58 | 211 | 1.7 | 5.2 | 0.00 | 0.07 | 0.02 | 65 | 1016.5 |
| 20260506200016 | 58 | 105 | 0.0 | 2.6 | 0.00 | 0.07 | 0.02 | 63 | 1017.0 |
| 20260506194506 | 57 | 5 | 0.9 | 2.6 | 0.00 | 0.07 | 0.02 | 64 | 1016.8 |
| 20260506193004 | 57 | 29 | 0.9 | 3.5 | 0.00 | 0.07 | 0.02 | 66 | 1017.0 |
| 20260506191507 | 57 | 77 | 0.9 | 5.2 | 0.00 | 0.08 | 0.02 | 65 | 1016.9 |
| 20260506190005 | 56 | 19 | 1.7 | 6.1 | 0.00 | 0.09 | 0.02 | 64 | 1017.0 |
| 20260506184505 | 55 | 236 | 0.9 | 7.0 | 0.00 | 0.11 | 0.02 | 66 | 1017.4 |
| 20260506183005 | 56 | 81 | 0.9 | 5.2 | 0.00 | 0.11 | 0.02 | 65 | 1017.6 |
| 20260506181504 | 55 | 294 | 0.9 | 6.1 | 0.00 | 0.12 | 0.02 | 66 | 1017.9 |
| 20260506180009 | 55 | 84 | 1.7 | 5.2 | 0.00 | 0.12 | 0.02 | 66 | 1018.2 |
| 20260506174507 | 54 | 9 | 0.0 | 5.2 | 0.00 | 0.12 | 0.02 | 70 | 1018.3 |
| 20260506173005 | 54 | 301 | 0.9 | 5.2 | 0.00 | 0.12 | 0.02 | 71 | 1018.4 |
| 20260506171505 | 54 | 295 | 0.9 | 5.2 | 0.00 | 0.12 | 0.02 | 71 | 1018.2 |
| 20260506170009 | 52 | 352 | 1.7 | 4.3 | 0.00 | 0.12 | 0.02 | 72 | 1017.9 |
| 20260506164524 | 51 | 281 | 0.9 | 3.5 | 0.00 | 0.12 | 0.02 | 76 | 1017.7 |
| 20260506163013 | 51 | 144 | 0.9 | 4.3 | 0.00 | 0.12 | 0.02 | 74 | 1017.8 |
| 20260506161507 | 51 | 39 | 1.7 | 7.0 | 0.00 | 0.12 | 0.02 | 76 | 1017.7 |
| 20260506160007 | 51 | 132 | 1.7 | 6.1 | 0.00 | 0.12 | 0.02 | 76 | 1017.1 |
| 20260506154511 | 51 | 5 | 1.7 | 5.2 | 0.00 | 0.12 | 0.02 | 78 | 1017.3 |
| 20260506153010 | 51 | 82 | 1.7 | 7.0 | 0.00 | 0.12 | 0.02 | 78 | 1017.6 |
| 20260506151515 | 50 | 301 | 1.7 | 5.2 | 0.00 | 0.12 | 0.02 | 77 | 1017.2 |
| 20260506150008 | 50 | 140 | 0.9 | 7.0 | 0.00 | 0.12 | 0.02 | 79 | 1017.4 |
| 20260506144521 | 50 | 252 | 0.9 | 7.8 | 0.00 | 0.12 | 0.02 | 81 | 1017.1 |
| 20260506143011 | 50 | 352 | 0.9 | 4.3 | 0.00 | 0.12 | 0.02 | 84 | 1016.8 |
| 20260506141524 | 49 | 31 | 0.9 | 4.3 | 0.00 | 0.12 | 0.02 | 84 | 1017.1 |
| 20260506140006 | 48 | 360 | 0.9 | 3.5 | 0.00 | 0.12 | 0.02 | 85 | 1017.0 |
| 20260506134510 | 48 | 329 | 0.9 | 3.5 | 0.00 | 0.12 | 0.02 | 85 | 1017.0 |
| 20260506133016 | 48 | 30 | 0.9 | 5.2 | 0.00 | 0.12 | 0.02 | 87 | 1016.7 |
| 20260506131513 | 47 | 52 | 0.9 | 3.5 | 0.00 | 0.13 | 0.02 | 88 | 1016.9 |
| 20260506130012 | 47 | 105 | 1.7 | 4.3 | 0.00 | 0.13 | 0.02 | 86 | 1016.7 |
| 20260506124508 | 47 | 352 | 0.9 | 3.5 | 0.00 | 0.13 | 0.02 | 88 | 1016.7 |
| 20260506123016 | 47 | 23 | 0.0 | 1.7 | 0.00 | 0.13 | 0.02 | 89 | 1016.4 |
| 20260506121516 | 46 | 15 | 0.0 | 2.6 | 0.00 | 0.13 | 0.02 | 89 | 1016.5 |
| 20260506120034 | 46 | 71 | 0.0 | 4.3 | 0.00 | 0.13 | 0.02 | 88 | 1016.4 |
| 20260506114519 | 46 | 12 | 0.0 | 3.5 | 0.00 | 0.13 | 0.02 | 89 | 1016.1 |
| 20260506113012 | 46 | 38 | 0.9 | 2.6 | 0.00 | 0.13 | 0.02 | 91 | 1015.8 |
| 20260506111512 | 46 | 44 | 0.0 | 2.6 | 0.00 | 0.13 | 0.02 | 91 | 1015.8 |
| 20260506110024 | 46 | 360 | 0.0 | 1.7 | 0.00 | 0.13 | 0.02 | 92 | 1015.4 |
| 20260506104505 | 46 | 9 | 0.0 | 1.7 | 0.00 | 0.13 | 0.02 | 92 | 1014.6 |
| 20260506103017 | 46 | 302 | 0.0 | 0.9 | 0.00 | 0.14 | 0.02 | 92 | 1014.5 |
| 20260506101506 | 46 | 337 | 0.0 | 1.7 | 0.00 | 0.16 | 0.02 | 91 | 1014.2 |
| 20260506100005 | 46 | 340 | 0.0 | 2.6 | 0.00 | 0.20 | 0.02 | 92 | 1013.8 |
| 20260506094505 | 46 | 343 | 0.0 | 1.7 | 0.00 | 0.22 | 0.02 | 92 | 1013.3 |
| 20260506093017 | 46 | 319 | 0.0 | 0.9 | 0.00 | 0.26 | 0.02 | 92 | 1013.8 |
| 20260506091508 | 46 | 352 | 0.0 | 1.7 | 0.00 | 0.29 | 0.02 | 93 | 1013.8 |
| 20260506090004 | 46 | 26 | 0.0 | 1.7 | 0.00 | 0.35 | 0.02 | 93 | 1013.5 |
| 20260506084504 | 46 | 345 | 0.0 | 1.7 | 0.00 | 0.38 | 0.02 | 93 | 1013.4 |
| 20260506083008 | 46 | 36 | 0.0 | 1.7 | 0.00 | 0.41 | 0.02 | 93 | 1013.0 |
| 20260506081512 | 46 | 317 | 0.0 | 1.7 | 0.01 | 0.44 | 0.02 | 93 | 1013.3 |
| 20260506073004 | 46 | 5 | 0.0 | 2.6 | 0.02 | 0.78 | 0.02 | 92 | 1012.7 |
| 20260506071505 | 46 | 61 | 0.9 | 3.5 | 0.01 | 0.78 | 0.01 | 92 | 1012.4 |
| 20260506061508 | 46 | 34 | 0.0 | 2.6 | 0.00 | 0.79 | 0.00 | 94 | 1013.2 |